[[{"header":{"parameterUnit":"m.s-1","parameterCategory":1,"la1":30.2991,"la2":30.254,"lo1":-89.0895,"lo2":-89.0444,"dy":0.0017,"dx":0.0017,"nx":28,"ny":28,"refTime":"2025-06-18T03:00:00:Z","depth":0,"parameterNumber":2,"parameterNumberName":"U-component_of_WINDS"},"data":[0,0,0,0,0,0,0,0,0,0,0,0,0,0,0,0,0,0,0,0,0,0,0,0,0,0,0,0,0,0,0,0,0,0,0,0,0,0,0,0,0,0,0,0,0,0,0,0,0,0,0,0,0,0,0,0,0,0,-0.3867,-0.3867,0,-0.3816,-0.3815,-0.3815,-0.3804,-0.3805,-0.3805,-0.3805,-0.3753,-0.3752,-0.375,0,0,0,0,0,0,0,0,0,0,0,0,0,-0.3957,-0.3956,-0.3867,-0.3867,-0.3866,-0.3816,-0.3815,-0.3815,-0.3804,-0.3805,-0.3805,-0.3806,-0.3754,-0.3752,-0.375,0,0,0,0,0,0,0,0,0,0,0,0,0,-0.3913,-0.3955,-0.3867,-0.3855,-0.3853,-0.3816,-0.3815,-0.3814,-0.3804,-0.3805,-0.3805,-0.3806,-0.3755,-0.3752,-0.3749,-0.3722,0,0,-0.3741,-0.374,0,0,0,0,0,0,0,0,-0.3916,-0.391,-0.3857,-0.3856,-0.3854,-0.3817,-0.3828,-0.3783,-0.3804,-0.3823,-0.3805,-0.3806,-0.3774,-0.377,-0.3759,-0.3719,-0.3717,-0.3741,-0.374,-0.3738,-0.3738,0,0,0,0,0,0,0,-0.3919,-0.3912,-0.3847,-0.3856,-0.3854,-0.3852,-0.3846,-0.3819,-0.3796,-0.3821,-0.382,-0.3814,-0.3773,-0.3762,-0.3758,-0.3716,-0.3741,-0.3739,-0.3737,-0.3736,-0.3652,-0.3651,0,0,0,0,0,0,-0.3924,-0.3915,-0.3849,-0.3845,-0.3887,-0.385,-0.3844,-0.3828,-0.3796,-0.3792,-0.3814,-0.3814,-0.3766,-0.3761,-0.3756,-0.3721,-0.3738,-0.3736,-0.3734,-0.3652,-0.3651,-0.3651,0,0,0,0,0,0,-0.3926,-0.3918,-0.3851,-0.388,-0.3871,-0.3848,-0.3831,-0.3827,-0.3815,-0.3791,-0.3786,-0.3806,-0.3766,-0.376,-0.373,-0.3719,-0.3735,-0.3732,-0.3653,-0.3652,-0.3651,-0.3652,0,0,0,0,0,0,-0.3929,-0.3919,-0.3908,-0.388,-0.387,-0.3826,-0.383,-0.3826,-0.3811,-0.381,-0.3782,-0.3778,-0.3766,-0.3734,-0.3728,-0.3716,-0.373,-0.3654,-0.3653,-0.3651,-0.3653,-0.3651,-0.3649,0,0,0,0,0,-0.3932,-0.391,-0.3907,-0.3899,-0.3855,-0.3825,-0.3819,-0.3805,-0.381,-0.3799,-0.3783,-0.3779,-0.3722,-0.3731,-0.3724,-0.3711,-0.3655,-0.3653,-0.3651,-0.3653,-0.3651,-0.3649,0,0,0,0,0,0,-0.3937,-0.3906,-0.3903,-0.3871,-0.3851,-0.3823,-0.3808,-0.3804,-0.3782,-0.3782,-0.3767,-0.376,-0.3732,-0.3719,-0.373,-0.3683,-0.3688,-0.3685,-0.3692,-0.369,-0.3689,-0.3692,-0.3728,0,0,0,0,0,-0.3935,-0.3913,-0.3887,-0.3861,-0.3851,-0.3832,-0.3818,-0.381,-0.3788,-0.3779,-0.3761,-0.3741,-0.3718,-0.3704,-0.3682,-0.3651,-0.3645,-0.3639,-0.3637,-0.3636,-0.3633,-0.3617,-0.3614,-0.3646,-0.3646,-0.3646,0,0,-0.3929,-0.391,-0.3897,-0.3862,-0.3845,-0.3823,-0.3825,-0.3801,-0.3784,-0.3776,-0.3747,-0.3733,-0.3709,-0.368,-0.3666,-0.3668,-0.3623,-0.3634,-0.3633,-0.3631,-0.3615,-0.3612,-0.3609,-0.3645,-0.3645,-0.3645,0,0,-0.3908,-0.3891,-0.3868,-0.3851,-0.3826,-0.3813,-0.3808,-0.3781,-0.3772,-0.3743,-0.3736,-0.3717,-0.3678,-0.3661,-0.3648,-0.3622,-0.3617,-0.3615,-0.3606,-0.359,-0.3588,-0.3585,-0.3576,-0.3573,-0.3613,-0.3613,-0.3613,0,-0.3904,-0.387,-0.3857,-0.3833,-0.3818,-0.381,-0.3787,-0.3772,-0.3741,-0.3731,-0.3734,-0.3685,-0.3669,-0.3635,-0.3629,-0.3618,-0.3612,-0.3618,-0.3589,-0.3587,-0.3584,-0.3575,-0.3572,-0.3612,-0.3612,-0.3612,-0.3612,0,-0.3867,-0.3844,-0.3828,-0.3799,-0.3782,-0.3759,-0.3742,-0.3728,-0.3721,-0.3708,-0.3679,-0.3659,-0.3633,-0.3624,-0.3617,-0.359,-0.3592,-0.3592,-0.3597,-0.3581,-0.3572,-0.3569,-0.3612,-0.3612,-0.3612,-0.3612,0,0,-0.3847,-0.381,-0.3805,-0.3791,-0.3763,-0.3745,-0.3722,-0.3697,-0.3684,-0.3664,-0.3644,-0.3612,-0.3613,-0.3597,-0.3589,-0.3575,-0.3555,-0.3577,-0.3576,-0.3573,-0.3524,-0.3523,-0.352,-0.3553,-0.3552,-0.3552,-0.3526,0,-0.3822,-0.378,-0.3767,-0.3732,-0.3711,-0.3703,-0.3683,-0.3664,-0.3652,-0.3632,-0.3619,-0.3597,-0.3599,-0.359,-0.3576,-0.3561,-0.3545,-0.3563,-0.3535,-0.3534,-0.354,-0.3515,-0.3514,-0.3491,-0.3522,-0.3522,-0.3521,0,-0.3786,-0.3765,-0.3728,-0.3703,-0.3694,-0.3676,-0.3652,-0.3633,-0.3612,-0.3604,-0.3588,-0.358,-0.3557,-0.3564,-0.3531,-0.3543,-0.3532,-0.3523,-0.3522,-0.3518,-0.3526,-0.351,-0.3483,-0.3479,-0.3516,-0.3516,-0.3517,0,-0.3775,-0.3737,-0.371,-0.3699,-0.3669,-0.3657,-0.3644,-0.3624,-0.3609,-0.3589,-0.3579,-0.3556,-0.3543,-0.3526,-0.3513,-0.352,-0.3482,-0.3488,-0.3475,-0.3475,-0.3466,-0.3467,-0.3436,-0.346,-0.346,-0.346,-0.346,0,-0.3748,-0.3725,-0.3704,-0.3687,-0.3662,-0.3649,-0.3624,-0.3611,-0.3593,-0.3574,-0.3567,-0.3549,-0.3533,-0.3514,-0.3504,-0.3478,-0.3473,-0.3466,-0.3463,-0.3466,-0.3467,-0.3457,-0.3459,-0.3459,-0.3459,-0.3459,-0.3459,0,-0.373,-0.3715,-0.3685,-0.366,-0.3653,-0.3636,-0.3615,-0.3598,-0.3587,-0.3563,-0.3556,-0.3538,-0.3514,-0.35,-0.347,-0.3464,-0.3436,-0.3434,-0.3443,-0.3441,-0.3429,-0.343,-0.339,-0.3385,-0.3413,-0.3412,-0.3412,0,-0.3714,-0.3696,-0.3669,-0.3656,-0.3643,-0.3622,-0.3607,-0.3594,-0.3579,-0.3554,-0.3541,-0.3517,-0.3497,-0.3461,-0.3445,-0.3422,-0.342,-0.3407,-0.3416,-0.342,-0.3419,-0.342,-0.3418,-0.3406,-0.3405,-0.3405,-0.3405,0,-0.3686,-0.368,-0.3659,-0.3635,-0.3618,-0.3599,-0.358,-0.357,-0.3553,-0.3537,-0.3513,-0.3498,-0.3468,-0.3445,-0.3421,-0.3409,-0.3404,-0.3403,-0.3398,-0.3401,-0.3406,-0.3403,-0.3438,-0.3403,-0.3404,-0.3404,-0.3404,-0.3404,-0.3668,-0.3652,-0.3631,-0.3608,-0.3593,-0.3575,-0.3559,-0.3545,-0.3525,-0.3499,-0.3493,-0.3468,-0.3448,-0.3415,-0.3403,-0.3383,-0.3385,-0.3379,-0.3377,-0.3376,-0.3375,-0.341,-0.3379,-0.3379,-0.3379,-0.3379,-0.3379,0,-0.364,-0.3626,-0.3605,-0.3579,-0.3561,-0.3558,-0.3538,-0.3523,-0.3501,-0.3483,-0.3463,-0.3436,-0.3414,-0.3396,-0.3374,-0.3361,-0.3359,-0.3356,-0.3356,-0.3353,-0.3375,-0.3381,-0.3358,-0.3358,-0.3358,-0.3358,-0.3358,-0.3358,-0.3623,-0.3596,-0.3587,-0.3553,-0.3539,-0.3514,-0.3502,-0.3487,-0.3472,-0.3442,-0.3423,-0.3412,-0.3394,-0.337,-0.335,-0.3345,-0.3337,-0.3334,-0.3329,-0.335,-0.3352,-0.3354,-0.3359,-0.3333,-0.3333,-0.3309,-0.3309,-0.3309]},{"header":{"parameterUnit":"m.s-1","parameterCategory":1,"la1":30.2991,"la2":30.254,"lo1":-89.0895,"lo2":-89.0444,"dy":0.0017,"dx":0.0017,"nx":28,"ny":28,"refTime":"2025-06-18T03:00:00:Z","depth":0,"parameterNumber":3,"parameterNumberName":"V-component_of_WINDS"},"data":[0,0,0,0,0,0,0,0,0,0,0,0,0,0,0,0,0,0,0,0,0,0,0,0,0,0,0,0,0,0,0,0,0,0,0,0,0,0,0,0,0,0,0,0,0,0,0,0,0,0,0,0,0,0,0,0,0,0,4.0201,4.0199,0,4.0092,4.0091,4.0089,4.0049,4.005,4.005,4.005,3.9931,3.9927,3.9924,0,0,0,0,0,0,0,0,0,0,0,0,0,4.0366,4.0364,4.0201,4.0199,4.0198,4.0092,4.009,4.0089,4.0049,4.005,4.005,4.005,3.9932,3.9928,3.9923,0,0,0,0,0,0,0,0,0,0,0,0,0,4.028,4.0363,4.0201,4.0166,4.0161,4.0092,4.009,4.0089,4.0049,4.005,4.005,4.0051,3.9933,3.9928,3.9923,3.9879,0,0,3.9907,3.9904,0,0,0,0,0,0,0,0,4.0285,4.0273,4.0172,4.0168,4.0163,4.0085,4.0105,4.0018,4.0049,4.0091,4.005,4.0051,3.9981,3.9972,3.995,3.9873,3.9868,3.9906,3.9903,3.9901,3.9899,0,0,0,0,0,0,0,4.0291,4.0278,4.0157,4.0171,4.0165,4.0153,4.0141,4.0088,4.0034,4.0088,4.0085,4.0073,3.9978,3.9955,3.9947,3.9866,3.9906,3.9902,3.9898,3.9896,3.9747,3.9746,0,0,0,0,0,0,4.0304,4.0283,4.0161,4.0154,4.0227,4.0149,4.0136,4.0109,4.0035,4.0024,4.0072,4.0071,3.9964,3.9953,3.9942,3.9886,3.9901,3.9896,3.9893,3.9748,3.9747,3.9746,0,0,0,0,0,0,4.0307,4.0293,4.0165,4.0218,4.0201,4.0146,4.0116,4.0107,4.0083,4.0023,4.0012,4.0059,3.9964,3.995,3.9895,3.9881,3.9893,3.9888,3.9749,3.9747,3.9746,3.9772,0,0,0,0,0,0,4.0312,4.0295,4.0279,4.0218,4.0198,4.0122,4.0115,4.0104,4.0075,4.0073,4.0008,3.9997,3.9963,3.9903,3.989,3.9874,3.9884,3.975,3.9748,3.9747,3.9772,3.9772,3.9772,0,0,0,0,0,4.0318,4.0289,4.0279,4.0264,4.0178,4.0122,4.011,4.0074,4.0074,4.0057,4.0018,3.9999,3.9885,3.9898,3.9883,3.9865,3.975,3.9749,3.9747,3.9772,3.9772,3.9772,0,0,0,0,0,0,4.0346,4.028,4.0268,4.0218,4.0176,4.0115,4.0092,4.0075,4.0029,4.0029,3.9983,3.9969,3.9918,3.9885,3.9902,3.9818,3.9816,3.9811,3.9841,3.984,3.984,3.9848,3.988,0,0,0,0,0,4.0348,4.031,4.0253,4.0214,4.0194,4.0147,4.0121,4.0097,4.0051,4.0032,3.9989,3.9943,3.9896,3.9866,3.982,3.9768,3.9752,3.9747,3.9747,3.9747,3.9743,3.9713,3.971,3.974,3.974,3.974,0,0,4.0348,4.0307,4.0286,4.0219,4.0184,4.0144,4.0132,4.009,4.0059,4.0024,3.9971,3.9938,3.9883,3.983,3.9804,3.9801,3.9732,3.9745,3.9746,3.9741,3.9711,3.9708,3.9705,3.9739,3.9739,3.9739,0,0,4.0329,4.0295,4.0259,4.0225,4.0173,4.0142,4.0133,4.0075,4.0052,3.9999,3.9972,3.9933,3.9854,3.9816,3.9787,3.9754,3.9735,3.974,3.9738,3.9709,3.9707,3.9704,3.9693,3.9689,3.9736,3.9737,3.9737,0,4.0335,4.0277,4.0242,4.0203,4.0174,4.0143,4.0106,4.0073,4.0007,3.9987,3.9986,3.9887,3.9847,3.9784,3.9777,3.9754,3.9741,3.9747,3.9711,3.9708,3.9705,3.9693,3.9689,3.9738,3.9737,3.9737,3.9737,0,4.0287,4.0247,4.0224,4.0165,4.0133,4.0095,4.0052,4.0024,4.0003,3.9971,3.9916,3.9868,3.9812,3.9795,3.9773,3.9729,3.9729,3.972,3.9717,3.9704,3.9692,3.9687,3.9739,3.9739,3.9738,3.9738,0,0,4.0282,4.0206,4.0198,4.0171,4.0111,4.0078,4.0037,3.9986,3.9962,3.9917,3.9881,3.9816,3.9807,3.9773,3.9746,3.9721,3.9698,3.9714,3.9712,3.9713,3.9646,3.9654,3.9649,3.9685,3.9684,3.9683,3.9651,0,4.0255,4.0184,4.0152,4.0095,4.0057,4.0028,3.9992,3.9951,3.992,3.9881,3.9846,3.98,3.9793,3.9772,3.9746,3.9707,3.9684,3.9708,3.9649,3.9647,3.9664,3.9643,3.965,3.9622,3.9646,3.9645,3.9644,0,4.0214,4.0173,4.0113,4.0059,4.0041,4.0011,3.996,3.9924,3.9876,3.9855,3.9819,3.9793,3.9747,3.9749,3.9684,3.9701,3.9675,3.9652,3.965,3.9642,3.9645,3.9634,3.9612,3.9607,3.9636,3.9637,3.9638,0,4.0216,4.0145,4.01,4.0078,4.0014,3.9993,3.9964,3.9917,3.9888,3.9843,3.9824,3.9773,3.9745,3.9705,3.9666,3.9671,3.9605,3.9603,3.9585,3.9586,3.9572,3.9573,3.9544,3.9555,3.9555,3.9556,3.9556,0,4.0189,4.0153,4.0101,4.0073,4.0032,3.9994,3.9953,3.9923,3.9881,3.9845,3.9815,3.9782,3.9733,3.9692,3.9661,3.9611,3.9599,3.9579,3.9571,3.9582,3.9584,3.9564,3.9564,3.9554,3.9555,3.9555,3.9555,0,4.0184,4.0148,4.0097,4.0042,4.0027,3.9999,3.9949,3.992,3.9889,3.9844,3.9831,3.978,3.9731,3.9689,3.9623,3.9602,3.9551,3.9541,3.9568,3.9564,3.9549,3.9551,3.9505,3.9497,3.9514,3.9514,3.9514,0,4.0169,4.0141,4.0084,4.0059,4.0033,3.9993,3.9964,3.9925,3.9896,3.984,3.9817,3.9766,3.9724,3.9646,3.9602,3.9551,3.954,3.9528,3.9532,3.9544,3.9539,3.9542,3.9538,3.9527,3.9527,3.9527,3.9527,0,4.0146,4.013,4.0091,4.0046,4.0014,3.9975,3.9936,3.9917,3.987,3.9838,3.979,3.9757,3.9691,3.9641,3.9586,3.9553,3.9532,3.9527,3.952,3.953,3.9547,3.9537,3.9568,3.9528,3.9527,3.9527,3.9527,3.9527,4.0136,4.011,4.0066,4.0024,3.9991,3.9955,3.9925,3.9891,3.9851,3.9797,3.9776,3.9726,3.9677,3.9601,3.9569,3.9528,3.9524,3.9514,3.9512,3.951,3.9512,3.9554,3.9517,3.9517,3.9517,3.9517,3.9517,0,4.0111,4.0082,4.0044,3.9991,3.9958,3.9944,3.99,3.9871,3.9829,3.9787,3.9747,3.969,3.9641,3.9594,3.9542,3.9518,3.9507,3.9506,3.9507,3.95,3.9518,3.9529,3.9516,3.9516,3.9516,3.9516,3.9516,3.9516,4.0095,4.0051,4.003,3.9969,3.9938,3.9892,3.9868,3.9834,3.9801,3.974,3.9701,3.9671,3.9626,3.9571,3.9525,3.9512,3.9494,3.9496,3.948,3.9498,3.9498,3.9499,3.9509,3.9492,3.9492,3.9466,3.9465,3.9465]}]]